{"data":{"norad_id":40294,"epoch":"2026-05-24T23:45:25.353792Z","epoch_age_seconds":75630,"freshness":"FRESH","line1":"1 40294U 14068A   26144.98987678 -.00000106  00000+0  00000+0 0  9993","line2":"2 40294  56.9722  31.8484 0066401  69.7589 290.9872  2.00574806 84743","mean_motion":2.00574806,"eccentricity":0.0066401,"inclination_deg":56.9722,"raan_deg":31.8484,"arg_perigee_deg":69.7589,"mean_anomaly_deg":290.9872,"bstar":0,"rev_number":8474,"period_min":717.93662859133,"perigee_km":20004.865088197,"apogee_km":20357.57868609,"semimajor_km":26559.358887143,"source":"CELESTRAK","updated_at":"2026-05-25T13:38:23.732506Z"}}